,,PA_Meas_PMT16A,,PR_Meas_QMR101_102,,RH_Meas_QMH101,,SR_Meas_QMS101,,TA_Meas_QMH101,,GenWind,,GenWind,
time,status,PA,status,PR,status,RH,status,SR,status,TA,status,DirAvg,status,SpdAvg,
2012-02-14, 00:00:04,VALID,918.175,VALID,0,VALID,94.5075,VALID,0,VALID,20.0733,VALID,141,VALID,1.32773,
2012-02-14, 00:01:04,VALID,918.155,VALID,0,VALID,94.7133,VALID,0,VALID,20.0718,VALID,141,VALID,1.60312,
2012-02-14, 00:02:04,VALID,918.108,VALID,0,VALID,94.7667,VALID,0.107441,VALID,20.0913,VALID,141,VALID,1.49883,
2012-02-14, 00:03:04,VALID,918.089,VALID,0,VALID,94.5456,VALID,0,VALID,20.1708,VALID,141,VALID,1.20508,
2012-02-14, 00:04:04,VALID,918.044,VALID,0,VALID,94.2483,VALID,0,VALID,20.2879,VALID,141,VALID,1.62539,
2012-02-14, 00:05:04,VALID,918.001,VALID,0,VALID,93.6232,VALID,0,VALID,20.4439,VALID,137,VALID,1.74766,
2012-02-14, 00:06:04,VALID,917.998,VALID,0,VALID,92.6779,VALID,0,VALID,20.5399,VALID,134,VALID,1.59805,
2012-02-14, 00:07:04,VALID,917.959,VALID,0,VALID,91.8927,VALID,0,VALID,20.6374,VALID,147,VALID,1.68789,
2012-02-14, 00:08:04,VALID,917.952,VALID,0,VALID,91.4124,VALID,0,VALID,20.678,VALID,138,VALID,1.69492,
2012-02-14, 00:09:04,VALID,917.934,VALID,0,VALID,90.9778,VALID,0,VALID,20.7154,VALID,134,VALID,2.1457,
2012-02-14, 00:10:04,VALID,917.923,VALID,0,VALID,90.6805,VALID,0,VALID,20.7755,VALID,145,VALID,1.03711,
2012-02-14, 00:11:04,VALID,917.905,VALID,0,VALID,90.5433,VALID,0,VALID,20.795,VALID,150,VALID,1.30273,
2012-02-14, 00:12:04,VALID,917.935,VALID,0,VALID,90.5204,VALID,0,VALID,20.7739,VALID,145,VALID,1.15391,
2012-02-14, 00:13:04,VALID,917.916,VALID,0,VALID,90.5738,VALID,0,VALID,20.7739,VALID,135,VALID,0.976563,
2012-02-14, 00:14:04,VALID,917.922,VALID,0,VALID,90.5814,VALID,0.107441,VALID,20.795,VALID,135,VALID,1.00703,
2012-02-14, 00:15:04,VALID,917.922,VALID,0,VALID,90.7034,VALID,0,VALID,20.7349,VALID,147,VALID,0.988672,
2012-02-14, 00:16:04,VALID,917.928,VALID,0,VALID,90.8635,VALID,0,VALID,20.7755,VALID,150,VALID,1.06602,
2012-02-14, 00:17:04,VALID,917.895,VALID,0,VALID,90.9397,VALID,0.107441,VALID,20.7544,VALID,124,VALID,1.25742,
2012-02-14, 00:18:04,VALID,917.924,VALID,0,VALID,90.8864,VALID,0,VALID,20.795,VALID,137,VALID,1.29922,
2012-02-14, 00:19:04,VALID,917.884,VALID,0,VALID,90.8635,VALID,0,VALID,20.795,VALID,132,VALID,1.15391,
2012-02-14, 00:20:04,VALID,917.86,VALID,0,VALID,90.7339,VALID,0,VALID,20.795,VALID,128,VALID,1.18789,
2012-02-14, 00:21:04,VALID,917.826,VALID,0,VALID,90.711,VALID,0,VALID,20.7934,VALID,128,VALID,1.54336,
2012-02-14, 00:22:04,VALID,917.778,VALID,0,VALID,90.5357,VALID,0,VALID,20.8519,VALID,128,VALID,1.49531,
2012-02-14, 00:23:04,VALID,917.741,VALID,0,VALID,90.4366,VALID,0,VALID,20.8925,VALID,134,VALID,1.63867,
2012-02-14, 00:24:04,VALID,917.718,VALID,0,VALID,90.0325,VALID,0,VALID,20.9511,VALID,139,VALID,2.10508,
2012-02-14, 00:25:04,VALID,917.626,VALID,0,VALID,89.5065,VALID,0,VALID,20.9885,VALID,156,VALID,1.47539,
2012-02-14, 00:26:04,VALID,917.642,VALID,0,VALID,89.2778,VALID,0.107441,VALID,21.0096,VALID,144,VALID,1.23789,
2012-02-14, 00:27:04,VALID,917.634,VALID,0,VALID,89.3769,VALID,0,VALID,20.9511,VALID,140,VALID,1.63008,
2012-02-14, 00:28:04,VALID,917.641,VALID,0,VALID,89.3769,VALID,0,VALID,20.9901,VALID,140,VALID,1.63711,
2012-02-14, 00:29:04,VALID,917.658,VALID,0,VALID,89.3083,VALID,0.107441,VALID,21.0096,VALID,141,VALID,1.50898,
2012-02-14, 00:30:04,VALID,917.666,VALID,0,VALID,89.2397,VALID,0,VALID,21.0096,VALID,153,VALID,1.46406,
2012-02-14, 00:31:04,VALID,917.672,VALID,0,VALID,89.1101,VALID,0,VALID,21.008,VALID,155,VALID,1.27969,
2012-02-14, 00:32:04,VALID,917.648,VALID,0,VALID,89.0949,VALID,0,VALID,21.0096,VALID,147,VALID,0.801953,
2012-02-14, 00:33:04,VALID,917.665,VALID,0,VALID,89.0263,VALID,0,VALID,21.008,VALID,125,VALID,1.86055,
2012-02-14, 00:34:04,VALID,917.618,VALID,0,VALID,88.9348,VALID,0,VALID,21.008,VALID,136,VALID,1.30234,
2012-02-14, 00:35:04,VALID,917.598,VALID,0,VALID,88.95,VALID,0,VALID,21.008,VALID,136,VALID,0.476563,
2012-02-14, 00:36:04,VALID,917.564,VALID,0,VALID,88.9653,VALID,0.107441,VALID,21.0291,VALID,156,VALID,1.03594,
2012-02-14, 00:37:04,VALID,917.504,VALID,0,VALID,89.0263,VALID,0,VALID,20.9901,VALID,163,VALID,0.971094,
2012-02-14, 00:38:04,VALID,917.492,VALID,0,VALID,89.194,VALID,0,VALID,20.9495,VALID,156,VALID,0.513672,
2012-02-14, 00:39:04,VALID,917.484,VALID,0,VALID,89.2626,VALID,0,VALID,20.9511,VALID,157,VALID,0.63125,
2012-02-14, 00:40:04,VALID,917.485,VALID,0,VALID,89.4455,VALID,0,VALID,20.93,VALID,146,VALID,1.92109,
2012-02-14, 00:41:04,VALID,917.459,VALID,0,VALID,89.2854,VALID,0,VALID,20.969,VALID,124,VALID,1.43984,
2012-02-14, 00:42:04,VALID,917.467,VALID,0,VALID,89.3007,VALID,0.107441,VALID,20.969,VALID,127,VALID,1.45195,
2012-02-14, 00:43:04,VALID,917.503,VALID,0,VALID,89.2245,VALID,0,VALID,20.969,VALID,122,VALID,1.49688,
2012-02-14, 00:44:04,VALID,917.521,VALID,0,VALID,88.9805,VALID,0,VALID,21.008,VALID,122,VALID,1.56016,
2012-02-14, 00:45:04,VALID,917.495,VALID,0,VALID,88.7213,VALID,0,VALID,21.047,VALID,122,VALID,1.60391,
2012-02-14, 00:46:04,VALID,917.545,VALID,0,VALID,88.6222,VALID,0,VALID,21.0665,VALID,122,VALID,1.00508,
2012-02-14, 00:47:04,VALID,917.564,VALID,0,VALID,88.6603,VALID,0,VALID,21.047,VALID,122,VALID,0.773438,
2012-02-14, 00:48:04,VALID,917.556,VALID,0,VALID,88.7442,VALID,0.107441,VALID,21.0275,VALID,122,VALID,1.06172,
2012-02-14, 00:49:04,VALID,917.552,VALID,0,VALID,88.8204,VALID,0,VALID,21.008,VALID,122,VALID,0.992188,
2012-02-14, 00:50:04,VALID,917.565,VALID,0,VALID,88.828,VALID,0,VALID,21.008,VALID,122,VALID,1.19883,
2012-02-14, 00:51:04,VALID,917.567,VALID,0,VALID,88.889,VALID,0.107441,VALID,20.969,VALID,140,VALID,0.808984,
2012-02-14, 00:52:04,VALID,917.563,VALID,0,VALID,88.9881,VALID,0,VALID,20.969,VALID,152,VALID,0.694922,
2012-02-14, 00:53:04,VALID,917.584,VALID,0,VALID,89.1025,VALID,0,VALID,20.9495,VALID,159,VALID,0.476563,
2012-02-14, 00:54:04,VALID,917.61,VALID,0,VALID,89.5294,VALID,0,VALID,20.93,VALID,159,VALID,0.5375,
2012-02-14, 00:55:04,VALID,917.594,VALID,0,VALID,89.9868,VALID,0,VALID,20.912,VALID,159,VALID,0.507031,
2012-02-14, 00:56:04,VALID,917.618,VALID,0,VALID,90.7263,VALID,0,VALID,20.8129,VALID,159,VALID,0.804297,
2012-02-14, 00:57:04,VALID,917.625,VALID,0,VALID,91.4581,VALID,0,VALID,20.717,VALID,159,VALID,0.494922,
2012-02-14, 00:58:04,VALID,917.659,VALID,0,VALID,92.0223,VALID,0.107441,VALID,20.6179,VALID,159,VALID,0.410547,
2012-02-14, 00:59:04,VALID,917.661,VALID,0,VALID,92.3653,VALID,0.107441,VALID,20.5594,VALID,159,VALID,0.358984,
2012-02-14, 01:00:04,VALID,917.645,VALID,0,VALID,92.5635,VALID,0,VALID,20.5009,VALID,159,VALID,0.476563,
2012-02-14, 01:01:04,VALID,917.668,VALID,0,VALID,92.6474,VALID,0,VALID,20.4813,VALID,159,VALID,0.757031,
2012-02-14, 01:02:04,VALID,917.66,VALID,0,VALID,92.7617,VALID,0,VALID,20.4618,VALID,159,VALID,0.363281,
2012-02-14, 01:03:04,VALID,917.671,VALID,0,VALID,92.8532,VALID,0,VALID,20.4813,VALID,160,VALID,0.857422,
2012-02-14, 01:04:04,VALID,917.7,VALID,0,VALID,92.7922,VALID,0,VALID,20.4813,VALID,160,VALID,0.673828,
2012-02-14, 01:05:04,VALID,917.687,VALID,0,VALID,92.7541,VALID,0,VALID,20.5219,VALID,160,VALID,0.703516,
2012-02-14, 01:06:04,VALID,917.672,VALID,0,VALID,92.7541,VALID,0.107441,VALID,20.5009,VALID,160,VALID,0.559375,
2012-02-14, 01:07:04,VALID,917.667,VALID,0,VALID,92.7084,VALID,0,VALID,20.5414,VALID,137,VALID,0.796094,
2012-02-14, 01:08:04,VALID,917.637,VALID,0,VALID,92.5635,VALID,0,VALID,20.5804,VALID,155,VALID,0.483594,
2012-02-14, 01:09:04,VALID,917.618,VALID,0,VALID,92.411,VALID,0,VALID,20.6179,VALID,132,VALID,1.24688,
2012-02-14, 01:10:04,VALID,917.619,VALID,0,VALID,92.1366,VALID,0,VALID,20.6764,VALID,147,VALID,0.545703,
2012-02-14, 01:11:04,VALID,917.556,VALID,0,VALID,91.9231,VALID,0.107441,VALID,20.7154,VALID,146,VALID,0.147266,
2012-02-14, 01:12:04,VALID,917.535,VALID,0,VALID,91.7935,VALID,0,VALID,20.7349,VALID,146,VALID,0.396875,
2012-02-14, 01:13:04,VALID,917.552,VALID,0,VALID,91.6716,VALID,0,VALID,20.7544,VALID,146,VALID,0.722266,
2012-02-14, 01:14:04,VALID,917.517,VALID,0,VALID,91.5725,VALID,0,VALID,20.7934,VALID,146,VALID,0.45,
2012-02-14, 01:15:04,VALID,917.482,VALID,0,VALID,91.481,VALID,0,VALID,20.8535,VALID,145,VALID,0.301172,
2012-02-14, 01:16:04,VALID,917.467,VALID,0,VALID,91.3285,VALID,0,VALID,20.8535,VALID,145,VALID,0.36875,
2012-02-14, 01:17:04,VALID,917.49,VALID,0,VALID,91.4429,VALID,0,VALID,20.8324,VALID,102,VALID,0.651172,
2012-02-14, 01:18:04,VALID,917.51,VALID,0,VALID,91.6182,VALID,0,VALID,20.795,VALID,15,VALID,0.770312,
2012-02-14, 01:19:04,VALID,917.512,VALID,0,VALID,91.9308,VALID,0,VALID,20.7154,VALID,15,VALID,0.863672,
2012-02-14, 01:20:04,VALID,917.473,VALID,0,VALID,92.1366,VALID,0,VALID,20.6374,VALID,15,VALID,0.582812,
2012-02-14, 01:21:04,VALID,917.475,VALID,0,VALID,92.4339,VALID,0,VALID,20.5399,VALID,15,VALID,0.426172,
2012-02-14, 01:22:04,VALID,917.469,VALID,0,VALID,92.7693,VALID,0,VALID,20.5219,VALID,15,VALID,0.253906,
2012-02-14, 01:23:04,VALID,917.449,VALID,0,VALID,92.9904,VALID,0,VALID,20.4423,VALID,15,VALID,0.448828,
2012-02-14, 01:24:04,VALID,917.435,VALID,0,VALID,93.3182,VALID,0,VALID,20.4049,VALID,15,VALID,0.682813,
2012-02-14, 01:25:04,VALID,917.443,VALID,0,VALID,93.6537,VALID,0,VALID,20.3253,VALID,15,VALID,0.668359,
2012-02-14, 01:26:04,VALID,917.461,VALID,0,VALID,93.9357,VALID,0,VALID,20.2668,VALID,15,VALID,0.521484,
2012-02-14, 01:27:04,VALID,917.469,VALID,0,VALID,94.2026,VALID,0,VALID,20.2278,VALID,15,VALID,0.519531,
2012-02-14, 01:28:04,VALID,917.476,VALID,0,VALID,94.4236,VALID,0,VALID,20.1888,VALID,15,VALID,0.346875,
2012-02-14, 01:29:04,VALID,917.469,VALID,0,VALID,94.5913,VALID,0,VALID,20.1888,VALID,15,VALID,0.276953,
2012-02-14, 01:30:04,VALID,917.498,VALID,0,VALID,94.7133,VALID,0.107441,VALID,20.2083,VALID,15,VALID,0.571484,
2012-02-14, 01:31:04,VALID,917.504,VALID,0,VALID,94.7286,VALID,0,VALID,20.2278,VALID,15,VALID,0.383203,
2012-02-14, 01:32:04,VALID,917.486,VALID,0,VALID,94.6676,VALID,0,VALID,20.2668,VALID,15,VALID,0.429297,
2012-02-14, 01:33:04,VALID,917.467,VALID,0,VALID,94.4617,VALID,0,VALID,20.3253,VALID,15,VALID,0.0667969,
2012-02-14, 01:34:04,VALID,917.444,VALID,0,VALID,94.3093,VALID,0,VALID,20.3448,VALID,15,VALID,0,
2012-02-14, 01:35:04,VALID,917.446,VALID,0,VALID,94.1568,VALID,0,VALID,20.3838,VALID,15,VALID,0,
2012-02-14, 01:36:04,VALID,917.418,VALID,0,VALID,93.8824,VALID,0,VALID,20.3854,VALID,15,VALID,0.247656,
2012-02-14, 01:37:04,VALID,917.363,VALID,0,VALID,93.7375,VALID,0,VALID,20.3643,VALID,15,VALID,0.308984,
2012-02-14, 01:38:04,VALID,917.348,VALID,0,VALID,93.7223,VALID,0,VALID,20.3643,VALID,15,VALID,0.550781,
2012-02-14, 01:39:04,VALID,917.309,VALID,0,VALID,93.707,VALID,0,VALID,20.3448,VALID,15,VALID,0.578906,
2012-02-14, 01:40:04,VALID,917.274,VALID,0,VALID,93.6689,VALID,0,VALID,20.3253,VALID,15,VALID,0.700781,
2012-02-14, 01:41:04,VALID,917.234,VALID,0,VALID,93.7223,VALID,0,VALID,20.3058,VALID,15,VALID,0.866016,
2012-02-14, 01:42:04,VALID,917.195,VALID,0,VALID,93.7375,VALID,0,VALID,20.3058,VALID,15,VALID,0.958984,
2012-02-14, 01:43:04,VALID,917.166,VALID,0,VALID,93.4936,VALID,0,VALID,20.3838,VALID,15,VALID,1.06523,
2012-02-14, 01:44:04,VALID,917.107,VALID,0,VALID,93.0133,VALID,0,VALID,20.4618,VALID,15,VALID,1.12578,
2012-02-14, 01:45:04,VALID,917.086,VALID,0,VALID,92.4568,VALID,0,VALID,20.5204,VALID,71,VALID,1.36953,
2012-02-14, 01:46:04,VALID,917.027,VALID,0,VALID,92.2128,VALID,0,VALID,20.5204,VALID,71,VALID,1.38008,
2012-02-14, 01:47:04,VALID,916.981,VALID,0,VALID,92.129,VALID,0,VALID,20.5009,VALID,71,VALID,1.2793,
2012-02-14, 01:48:04,VALID,916.924,VALID,0,VALID,92.1366,VALID,0,VALID,20.4618,VALID,71,VALID,1.25391,
2012-02-14, 01:49:04,VALID,916.932,VALID,0,VALID,92.2738,VALID,0,VALID,20.4634,VALID,71,VALID,1.18398,
2012-02-14, 01:50:04,VALID,916.911,VALID,0,VALID,92.3119,VALID,0,VALID,20.4439,VALID,71,VALID,0.695703,
2012-02-14, 01:51:04,VALID,916.89,VALID,0,VALID,92.3577,VALID,0,VALID,20.3838,VALID,71,VALID,0.712891,
2012-02-14, 01:52:04,VALID,916.893,VALID,0,VALID,92.5254,VALID,0,VALID,20.3643,VALID,71,VALID,0.416016,
2012-02-14, 01:53:04,VALID,916.869,VALID,0,VALID,92.6397,VALID,0,VALID,20.3253,VALID,71,VALID,0.567187,
2012-02-14, 01:54:04,VALID,916.869,VALID,0,VALID,92.6245,VALID,0,VALID,20.2668,VALID,71,VALID,0.504297,
2012-02-14, 01:55:04,VALID,916.882,VALID,0,VALID,92.7084,VALID,0,VALID,20.2278,VALID,71,VALID,0.678906,
2012-02-14, 01:56:04,VALID,916.859,VALID,0,VALID,93.0667,VALID,0,VALID,20.2083,VALID,71,VALID,0.606641,
2012-02-14, 01:57:04,VALID,916.841,VALID,0,VALID,93.2877,VALID,0,VALID,20.1888,VALID,71,VALID,0.189453,
2012-02-14, 01:58:04,VALID,916.819,VALID,0,VALID,93.3411,VALID,0.107441,VALID,20.1888,VALID,71,VALID,0,
2012-02-14, 01:59:04,VALID,916.831,VALID,0,VALID,93.4707,VALID,0,VALID,20.1693,VALID,71,VALID,0.322656,
2012-02-14, 02:00:04,VALID,916.783,VALID,0,VALID,93.5774,VALID,0,VALID,20.1693,VALID,71,VALID,0.0324219,
2012-02-14, 02:01:04,VALID,916.758,VALID,0,VALID,93.7147,VALID,0,VALID,20.1888,VALID,71,VALID,0,
2012-02-14, 02:02:04,VALID,916.774,VALID,0,VALID,93.7375,VALID,0,VALID,20.1888,VALID,71,VALID,0,
2012-02-14, 02:03:04,VALID,916.771,VALID,0,VALID,93.646,VALID,0,VALID,20.1888,VALID,71,VALID,0,
2012-02-14, 02:04:04,VALID,916.777,VALID,0,VALID,93.0438,VALID,0,VALID,20.1108,VALID,71,VALID,0,
2012-02-14, 02:05:04,VALID,916.782,VALID,0,VALID,93.3411,VALID,0,VALID,20.0913,VALID,71,VALID,0,
2012-02-14, 02:06:04,VALID,916.769,VALID,0,VALID,93.6918,VALID,0,VALID,20.0913,VALID,71,VALID,0,
2012-02-14, 02:07:04,VALID,916.73,VALID,0,VALID,93.9662,VALID,0.107441,VALID,20.1303,VALID,71,VALID,0,
2012-02-14, 02:08:04,VALID,916.712,VALID,0,VALID,94.012,VALID,0,VALID,20.1498,VALID,71,VALID,0,
2012-02-14, 02:09:04,VALID,916.73,VALID,0,VALID,93.9662,VALID,0,VALID,20.1498,VALID,71,VALID,0,
2012-02-14, 02:10:04,VALID,916.692,VALID,0,VALID,93.89,VALID,0,VALID,20.1498,VALID,71,VALID,0,
2012-02-14, 02:11:04,VALID,916.7,VALID,0,VALID,93.8976,VALID,0,VALID,20.1498,VALID,71,VALID,0,
2012-02-14, 02:12:04,VALID,916.685,VALID,0,VALID,93.89,VALID,0,VALID,20.1693,VALID,71,VALID,0.187891,
2012-02-14, 02:13:04,VALID,916.684,VALID,0,VALID,93.8138,VALID,0.107441,VALID,20.2098,VALID,71,VALID,0.441406,
2012-02-14, 02:14:04,VALID,916.678,VALID,0,VALID,93.6994,VALID,0,VALID,20.1888,VALID,71,VALID,0.358203,
2012-02-14, 02:15:04,VALID,916.632,VALID,0,VALID,93.7223,VALID,0,VALID,20.1693,VALID,71,VALID,0.730469,
2012-02-14, 02:16:04,VALID,916.654,VALID,0,VALID,93.6994,VALID,0,VALID,20.1693,VALID,71,VALID,0.702734,
2012-02-14, 02:17:04,VALID,916.632,VALID,0,VALID,93.6689,VALID,0,VALID,20.1498,VALID,71,VALID,0.622656,
2012-02-14, 02:18:04,VALID,916.602,VALID,0,VALID,93.5546,VALID,0,VALID,20.1303,VALID,71,VALID,0.587109,
2012-02-14, 02:19:04,VALID,916.616,VALID,0,VALID,93.5851,VALID,0,VALID,20.0913,VALID,71,VALID,1.01602,
2012-02-14, 02:20:04,VALID,916.623,VALID,0,VALID,93.7528,VALID,0,VALID,20.0913,VALID,71,VALID,1.02578,
2012-02-14, 02:21:04,VALID,916.6,VALID,0,VALID,93.89,VALID,0,VALID,20.1108,VALID,71,VALID,0.716016,
2012-02-14, 02:22:04,VALID,916.629,VALID,0,VALID,93.8595,VALID,0,VALID,20.1303,VALID,71,VALID,0.286328,
2012-02-14, 02:23:04,VALID,916.615,VALID,0,VALID,93.6842,VALID,0,VALID,20.1303,VALID,71,VALID,0.363281,
2012-02-14, 02:24:04,VALID,916.608,VALID,0,VALID,93.6765,VALID,0,VALID,20.1303,VALID,71,VALID,0.773047,
2012-02-14, 02:25:04,VALID,916.614,VALID,0,VALID,93.7147,VALID,0,VALID,20.1303,VALID,71,VALID,0.474609,
2012-02-14, 02:26:04,VALID,916.585,VALID,0,VALID,93.7833,VALID,0,VALID,20.1303,VALID,71,VALID,0.0863281,
2012-02-14, 02:27:04,VALID,916.553,VALID,0,VALID,93.8976,VALID,0,VALID,20.1708,VALID,71,VALID,0,
2012-02-14, 02:28:04,VALID,916.546,VALID,0,VALID,93.6765,VALID,0.107441,VALID,20.1303,VALID,71,VALID,0,
2012-02-14, 02:29:04,VALID,916.548,VALID,0,VALID,93.4783,VALID,0,VALID,20.0913,VALID,71,VALID,0.0128906,
2012-02-14, 02:30:04,VALID,916.543,VALID,0,VALID,93.3716,VALID,0,VALID,20.0733,VALID,49,VALID,1.33867,
2012-02-14, 02:31:04,VALID,916.563,VALID,0,VALID,93.4555,VALID,0,VALID,19.9938,VALID,49,VALID,1.1625,
2012-02-14, 02:32:04,VALID,916.553,VALID,0,VALID,93.5393,VALID,0,VALID,19.9548,VALID,49,VALID,0.916406,
2012-02-14, 02:33:04,VALID,916.58,VALID,0,VALID,94.0348,VALID,0,VALID,19.9353,VALID,20,VALID,1.63828,
2012-02-14, 02:34:04,VALID,916.598,VALID,0,VALID,94.2407,VALID,0,VALID,19.9548,VALID,18,VALID,1.25977,
2012-02-14, 02:35:04,VALID,916.618,VALID,0,VALID,94.2407,VALID,0,VALID,19.9563,VALID,22,VALID,1.2957,
2012-02-14, 02:36:04,VALID,916.645,VALID,0,VALID,94.4389,VALID,0,VALID,19.9158,VALID,25,VALID,1.40781,
2012-02-14, 02:37:04,VALID,916.658,VALID,0,VALID,94.4846,VALID,0,VALID,19.8963,VALID,25,VALID,1.05898,
2012-02-14, 02:38:04,VALID,916.659,VALID,0,VALID,94.6752,VALID,0,VALID,19.8783,VALID,25,VALID,0.843359,
2012-02-14, 02:39:04,VALID,916.683,VALID,0,VALID,94.8734,VALID,0,VALID,19.8783,VALID,25,VALID,0.725391,
2012-02-14, 02:40:04,VALID,916.681,VALID,0,VALID,95.0488,VALID,0,VALID,19.8783,VALID,25,VALID,1.01719,
2012-02-14, 02:41:04,VALID,916.681,VALID,0,VALID,95.186,VALID,0,VALID,19.8573,VALID,25,VALID,0.7375,
2012-02-14, 02:42:04,VALID,916.711,VALID,0,VALID,95.2546,VALID,0,VALID,19.8573,VALID,25,VALID,0.100781,
2012-02-14, 02:43:04,VALID,916.685,VALID,0,VALID,95.3232,VALID,0,VALID,19.8573,VALID,25,VALID,0,
2012-02-14, 02:44:05,VALID,916.684,VALID,0,VALID,95.3766,VALID,0,VALID,19.8783,VALID,25,VALID,0.177734,
2012-02-14, 02:45:05,VALID,916.718,VALID,0,VALID,95.4147,VALID,0,VALID,19.8588,VALID,25,VALID,0.457031,
2012-02-14, 02:46:05,VALID,916.704,VALID,0,VALID,95.4147,VALID,0,VALID,19.8378,VALID,25,VALID,0.556641,
2012-02-14, 02:47:05,VALID,916.706,VALID,0,VALID,95.4604,VALID,0,VALID,19.8588,VALID,25,VALID,0.873828,
2012-02-14, 02:48:05,VALID,916.682,VALID,0,VALID,95.4985,VALID,0,VALID,19.8588,VALID,150,VALID,0.894922,
2012-02-14, 02:49:05,VALID,916.701,VALID,0,VALID,95.5214,VALID,0,VALID,19.8393,VALID,150,VALID,0.910937,
2012-02-14, 02:50:05,VALID,916.719,VALID,0,VALID,95.5519,VALID,0,VALID,19.8183,VALID,150,VALID,1.30781,
2012-02-14, 02:51:05,VALID,916.725,VALID,0,VALID,95.6053,VALID,0,VALID,19.8198,VALID,150,VALID,0.903906,
2012-02-14, 02:52:05,VALID,916.706,VALID,0,VALID,95.6586,VALID,0,VALID,19.8393,VALID,150,VALID,0.855469,
2012-02-14, 02:53:05,VALID,916.725,VALID,0,VALID,95.6891,VALID,0,VALID,19.8588,VALID,150,VALID,0.762109,
2012-02-14, 02:54:05,VALID,916.72,VALID,0,VALID,95.7272,VALID,0,VALID,19.8573,VALID,150,VALID,0.758984,
2012-02-14, 02:55:05,VALID,916.725,VALID,0,VALID,95.7349,VALID,0,VALID,19.8783,VALID,150,VALID,0.823828,
2012-02-14, 02:56:05,VALID,916.718,VALID,0,VALID,95.7349,VALID,0,VALID,19.8978,VALID,150,VALID,0.979297,
2012-02-14, 02:57:05,VALID,916.709,VALID,0,VALID,95.7349,VALID,0,VALID,19.8963,VALID,150,VALID,1.01953,
2012-02-14, 02:58:05,VALID,916.657,VALID,0,VALID,95.6891,VALID,0,VALID,19.9368,VALID,150,VALID,0.673437,
2012-02-14, 02:59:05,VALID,916.654,VALID,0,VALID,95.6586,VALID,0,VALID,19.9563,VALID,150,VALID,0.543359,
2012-02-14, 03:00:05,VALID,916.671,VALID,0,VALID,95.6434,VALID,0,VALID,19.9758,VALID,150,VALID,0.723828,
2012-02-14, 03:01:05,VALID,916.68,VALID,0,VALID,95.6053,VALID,0,VALID,19.9953,VALID,150,VALID,0.776953,
2012-02-14, 03:02:05,VALID,916.653,VALID,0,VALID,95.529,VALID,0,VALID,19.9743,VALID,150,VALID,1.01719,
2012-02-14, 03:03:05,VALID,916.625,VALID,0,VALID,95.4528,VALID,0,VALID,19.9938,VALID,150,VALID,0.864844,
2012-02-14, 03:04:05,VALID,916.629,VALID,0,VALID,95.3918,VALID,0,VALID,19.9938,VALID,150,VALID,0.553125,
2012-02-14, 03:05:05,VALID,916.656,VALID,0,VALID,95.3461,VALID,0,VALID,20.0133,VALID,150,VALID,0.282031,
2012-02-14, 03:06:05,VALID,916.656,VALID,0,VALID,95.3003,VALID,0,VALID,20.0538,VALID,150,VALID,0.108984,
2012-02-14, 03:07:05,VALID,916.65,VALID,0,VALID,95.2775,VALID,0,VALID,20.0523,VALID,150,VALID,0,
2012-02-14, 03:08:05,VALID,916.637,VALID,0,VALID,95.1936,VALID,0,VALID,20.0523,VALID,150,VALID,0.721484,
2012-02-14, 03:09:05,VALID,916.639,VALID,0,VALID,95.125,VALID,0,VALID,20.0928,VALID,150,VALID,0.730078,
2012-02-14, 03:10:05,VALID,916.604,VALID,0,VALID,95.0411,VALID,0,VALID,20.0913,VALID,150,VALID,0.545703,
2012-02-14, 03:11:05,VALID,916.626,VALID,0,VALID,94.9649,VALID,0,VALID,20.1318,VALID,150,VALID,0.276953,
2012-02-14, 03:12:05,VALID,916.607,VALID,0,VALID,94.9115,VALID,0,VALID,20.1513,VALID,150,VALID,0.203125,
2012-02-14, 03:13:05,VALID,916.607,VALID,0,VALID,94.8429,VALID,0,VALID,20.1724,VALID,150,VALID,0.0972656,
2012-02-14, 03:14:05,VALID,916.602,VALID,0,VALID,94.8505,VALID,0,VALID,20.1903,VALID,150,VALID,0.290625,
2012-02-14, 03:15:05,VALID,916.582,VALID,0,VALID,94.8582,VALID,0,VALID,20.2098,VALID,150,VALID,0.344141,
2012-02-14, 03:16:05,VALID,916.579,VALID,0,VALID,94.66,VALID,0,VALID,20.1708,VALID,150,VALID,0.755078,
2012-02-14, 03:17:05,VALID,916.558,VALID,0,VALID,94.6447,VALID,0,VALID,20.1513,VALID,150,VALID,0.642187,
2012-02-14, 03:18:05,VALID,916.548,VALID,0,VALID,94.6447,VALID,0,VALID,20.1318,VALID,150,VALID,0.528906,
2012-02-14, 03:19:05,VALID,916.555,VALID,0,VALID,94.6752,VALID,0,VALID,20.1123,VALID,150,VALID,0.575,
2012-02-14, 03:20:05,VALID,916.544,VALID,0,VALID,94.7972,VALID,0,VALID,20.1123,VALID,150,VALID,0.729688,
2012-02-14, 03:21:05,VALID,916.548,VALID,0,VALID,94.9192,VALID,0,VALID,20.1529,VALID,150,VALID,0.766406,
2012-02-14, 03:22:05,VALID,916.536,VALID,0,VALID,94.9344,VALID,0,VALID,20.1318,VALID,150,VALID,0.5375,
2012-02-14, 03:23:05,VALID,916.503,VALID,0,VALID,94.9115,VALID,0,VALID,20.1513,VALID,150,VALID,0.453516,
2012-02-14, 03:24:05,VALID,916.487,VALID,0,VALID,94.7362,VALID,0,VALID,20.1513,VALID,150,VALID,0.287891,
2012-02-14, 03:25:05,VALID,916.471,VALID,0,VALID,94.6752,VALID,0,VALID,20.1529,VALID,150,VALID,0.386719,
2012-02-14, 03:26:05,VALID,916.428,VALID,0,VALID,94.6218,VALID,0,VALID,20.1334,VALID,150,VALID,0.362109,
2012-02-14, 03:27:05,VALID,916.408,VALID,0,VALID,94.5913,VALID,0,VALID,20.0733,VALID,150,VALID,0.153906,
2012-02-14, 03:28:05,VALID,916.398,VALID,0,VALID,94.6523,VALID,0,VALID,20.0928,VALID,150,VALID,0,
2012-02-14, 03:29:05,VALID,916.4,VALID,0,VALID,94.8505,VALID,0,VALID,20.1123,VALID,150,VALID,0,
2012-02-14, 03:30:05,VALID,916.412,VALID,0,VALID,94.8887,VALID,0,VALID,20.0913,VALID,150,VALID,0.230859,
2012-02-14, 03:31:05,VALID,916.414,VALID,0,VALID,94.8582,VALID,0,VALID,20.0523,VALID,150,VALID,0.273828,
2012-02-14, 03:32:05,VALID,916.42,VALID,0,VALID,94.9039,VALID,0,VALID,20.0328,VALID,150,VALID,0.507813,
2012-02-14, 03:33:05,VALID,916.427,VALID,0,VALID,94.9192,VALID,0,VALID,20.0328,VALID,150,VALID,0.619141,
2012-02-14, 03:34:05,VALID,916.425,VALID,0,VALID,94.8353,VALID,0,VALID,20.0523,VALID,150,VALID,0.708984,
2012-02-14, 03:35:05,VALID,916.483,VALID,0.2,VALID,94.8505,VALID,0,VALID,20.0913,VALID,150,VALID,0.664063,
2012-02-14, 03:36:05,VALID,916.463,VALID,0,VALID,94.8048,VALID,0,VALID,20.0718,VALID,150,VALID,0.732422,
2012-02-14, 03:37:05,VALID,916.478,VALID,0,VALID,94.7819,VALID,0,VALID,20.0928,VALID,150,VALID,0.776953,
2012-02-14, 03:38:05,VALID,916.52,VALID,0,VALID,94.8048,VALID,0,VALID,20.0718,VALID,150,VALID,0.89375,
2012-02-14, 03:39:05,VALID,916.497,VALID,0,VALID,94.8582,VALID,0,VALID,20.0733,VALID,139,VALID,1.17031,
2012-02-14, 03:40:05,VALID,916.505,VALID,0,VALID,94.9496,VALID,0,VALID,20.0523,VALID,130,VALID,1.17617,
2012-02-14, 03:41:05,VALID,916.501,VALID,0,VALID,95.0183,VALID,0,VALID,20.0733,VALID,129,VALID,1.1082,
2012-02-14, 03:42:05,VALID,916.472,VALID,0,VALID,95.1021,VALID,0,VALID,20.0328,VALID,130,VALID,1.26172,
2012-02-14, 03:43:05,VALID,916.448,VALID,0,VALID,95.1555,VALID,0,VALID,20.0343,VALID,130,VALID,1.0793,
2012-02-14, 03:44:05,VALID,916.479,VALID,0,VALID,95.2698,VALID,0,VALID,20.0343,VALID,130,VALID,1.06797,
2012-02-14, 03:45:05,VALID,916.458,VALID,0,VALID,95.3537,VALID,0,VALID,20.0148,VALID,130,VALID,1.22031,
2012-02-14, 03:46:05,VALID,916.418,VALID,0,VALID,95.4147,VALID,0,VALID,19.9953,VALID,130,VALID,0.966016,